Погода в Кьявари

Италия     44°18′54″N   9°19′24″E
темп.,
°C
ветер,
м/с
пор.,
м/с
влажн.,
%
обл.,
%
осадки,
мм/ч
давл.,
гПа
погр.,
м
18 мая, вт
вт1823:00+15всв34710 0.0 101186
02:00+15ссв32610 0.0 101284
05:00+14св44630 0.0 1012159
08:00+15в46695 0.0 1013345
11:00+17вюв910738 0.0 1014684
14:00+16вюв9107387 0.0 1013785
17:00+16юв7778100 0.0 1012762
20:00+16в667799 0.1 1011526
19 мая, ср
ср1923:00+15св567892 0.0 1012241
02:00+15св2272100 0.0 1012132
05:00+14св22743 0.0 1012146
08:00+15всв22713 0.0 1013150
11:00+16ю32730 0.0 1015317
14:00+16ю337216 0.0 1014356
17:00+16ююз116965 0.0 1014446
20:00+16вюв11733 0.0 1014229
20 мая, чт
чт2023:00+15св32750 0.0 1015103
02:00+14ссв32660 0.0 1015112
05:00+14св11604 0.0 1015117
08:00+15ссв22602 0.0 1017179
11:00+16ююз33590 0.0 1018407
14:00+17ююз22595 0.0 1018304
17:00+18ю33585 0.0 1018272
20:00+17зсз01755 0.0 102011
21 мая, пт
пт2123:00+15св44705 0.0 102166
02:00+16в446646 0.0 1021128
05:00+15всв3364100 0.0 1021142
08:00+16вюв2266100 0.0 1021137
11:00+16ююв226696 0.0 1021282
14:00+16ююв33695 0.0 1020451
17:00+16ююв456934 0.0 1019521
20:00+16юв447622 0.0 1018457
22 мая, сб
сб2223:00+15в4577100 0.0 1017344
02:00+15в567299 0.0 1015312
05:00+15вюв798166 0.0 1013627
08:00+16юв9118998 0.3 1013756
11:00+16юв898997 1.0 1013631
14:00+16ююв788799 2.1 1012519
17:00+17ююв4584100 0.8 1012285
20:00+17ююв4583100 1.1 1012149